User: anonymous   Login
Location: Lawrence
(38.9720°N, 95.2350°W)
Time: 23:38:17
(UTC-05:00)
Language:

JAS-1B - Orbit

View from above orbital plane
View from above orbital plane
View from above satellite
View from above satellite

Ground track
Ground track

The orbit data is extracted from the following two-line orbital elements,

1 20480U 90013C   15214.57868868  .00000001  00000-0  68982-4 0  9994
2 20480 099.0619 106.0684 0540685 142.4163 289.3319 12.83406396193903
Epoch (UTC): 02 August 2015 13:53:18
Eccentricity: 0.0540685
inclination: 99.0619°
perigee height: 911 km
apogee height: 1744 km
right ascension of ascending node: 106.0684°
argument of perigee: 142.4163°
revolutions per day: 12.83406396
mean anomaly at epoch: 289.3319°
orbit number at epoch: 19390

The dashed part of the orbit path shows where the satellite is in the earth's shadow,  

DLR